Wind_Speed
15 14 14 14 13 12 11 10 10 10 12 12 12 13 14 15 14 12 11 10 10 14 14 11 10 11 11 14 16 17 5 12 19 18 17 23 15 28 25 19 24 20 8 10 18
16 15 15 14 14 12 12 11 11 11 12 11 11 11 13 15 16 10 2 6 11 15 17 14 8 8 10 9 12 9 7 17 14 15 17 21 19 24 18 14 18 19 3 3 21
18 17 15 15 14 12 12 11 12 12 13 13 13 14 15 13 6 0 4 7 11 10 9 10 5 9 13 22 22 13 17 14 19 25 31 28 27 28 20 10 21 18 19 9 13
20 19 17 16 15 14 14 13 12 13 14 15 16 15 11 4 4 3 7 6 6 5 4 2 5 14 4 8 17 16 22 25 27 31 33 25 32 26 25 23 29 31 26 27 19
21 20 19 17 16 15 13 13 14 16 15 14 14 12 6 5 4 4 9 6 7 5 8 11 13 14 10 8 21 18 17 26 30 30 32 36 30 26 31 33 35 30 27 27 25
22 21 21 19 17 16 15 15 16 17 14 11 11 9 6 5 2 5 8 8 7 5 7 7 7 13 11 10 8 15 20 22 27 28 31 24 27 28 35 34 36 35 28 26 25
22 22 21 19 17 15 15 14 16 14 12 7 8 9 8 9 3 3 8 6 6 5 4 7 12 10 16 9 14 21 11 15 17 20 15 17 19 28 35 30 29 35 39 35 27
21 22 21 20 18 15 13 13 15 12 7 8 5 5 7 3 3 4 6 8 3 5 9 11 6 7 12 13 14 7 8 7 1 10 20 14 26 22 25 32 33 27 37 43 33
24 23 22 19 17 15 12 13 14 11 8 6 2 4 10 5 0 6 5 7 8 9 10 10 9 8 11 6 5 6 8 12 16 13 12 11 25 24 31 27 25 34 34 35 44
25 25 24 19 13 12 9 12 9 7 4 8 5 8 8 8 5 8 7 5 9 13 13 13 12 6 4 4 5 8 8 9 12 5 7 13 20 17 25 31 31 31 31 34 39
26 25 24 17 11 7 7 10 9 3 7 12 14 12 18 4 7 6 4 6 11 13 5 8 5 6 11 9 10 11 12 12 14 11 13 12 18 20 19 23 22 34 35 33 35
29 23 21 14 7 4 5 8 9 9 10 19 19 19 10 7 5 10 6 4 10 7 9 7 5 8 13 13 13 12 13 12 10 10 14 13 19 19 18 18 25 27 32 38 40
30 22 16 6 3 3 5 6 12 11 4 12 10 5 8 4 11 11 1 6 6 7 8 6 9 14 13 11 14 14 14 13 14 11 14 9 16 22 21 20 28 32 31 33 43
29 20 13 5 4 11 5 9 11 12 2 6 6 4 3 6 8 11 3 3 3 7 9 6 11 13 10 10 11 10 13 17 16 12 9 4 16 12 17 22 15 24 30 34 33
28 19 6 6 6 9 11 11 13 1 3 5 7 6 5 6 8 12 7 9 9 12 7 11 13 8 8 6 11 12 12 16 16 14 13 12 11 15 9 18 18 16 29 36 38
25 17 2 2 4 11 13 10 8 1 2 5 7 1 3 7 12 2 8 12 20 12 11 15 18 3 3 7 8 13 12 9 7 3 11 14 11 20 14 19 20 20 31 36 39
22 12 3 2 6 13 12 12 1 2 3 7 6 12 10 14 9 6 1 6 7 6 4 7 6 6 6 5 5 8 8 4 4 2 5 10 11 16 19 20 19 18 28 38 39
16 8 1 3 5 12 10 3 2 8 11 12 11 13 14 6 4 6 3 5 8 10 5 5 5 9 7 3 6 5 4 4 5 10 15 13 9 14 10 18 24 23 32 33 36
12 1 5 3 7 12 7 2 3 9 10 12 13 10 7 16 12 9 7 5 6 6 3 3 4 10 16 15 10 11 5 10 10 15 8 11 18 16 20 5 15 25 36 40 42
9 2 6 1 7 7 2 4 4 13 11 9 7 7 11 12 9 10 8 8 6 10 2 4 13 7 11 14 9 3 7 7 4 6 5 4 11 5 13 16 18 21 29 41 50
3 2 1 5 6 2 1 4 11 16 11 4 8 8 9 9 10 11 6 14 10 10 9 6 1 7 10 4 2 4 3 2 5 6 3 5 3 2 9 11 16 17 38 37 41
7 1 3 3 1 3 2 9 17 16 7 8 6 4 5 8 7 10 7 8 12 10 5 5 4 5 16 19 5 4 5 4 2 6 3 3 7 3 6 10 14 18 32 35 38
9 4 2 2 1 2 8 11 21 8 1 3 5 10 6 7 7 2 8 13 5 4 1 1 3 5 10 4 1 2 5 7 5 4 7 7 6 2 3 11 14 16 23 25 31
7 4 5 6 12 7 8 8 11 18 9 8 5 8 8 9 7 4 9 6 9 8 5 8 4 8 8 12 14 19 20 17 6 4 10 12 10 26 6 5 7 20 21 27 25
10 4 7 4 6 9 10 9 15 12 11 17 8 12 11 7 7 7 11 13 12 7 2 3 5 9 14 20 22 24 22 20 18 11 12 17 23 5 4 6 3 6 15 21 40
7 7 11 11 13 9 11 5 10 14 10 7 7 11 9 8 11 15 14 8 5 4 3 6 4 8 18 19 17 20 18 17 15 11 6 16 11 12 6 11 4 8 20 32 34
9 7 7 8 7 7 5 12 14 13 8 8 9 12 13 15 25 24 22 24 14 12 14 9 3 1 7 12 18 6 8 10 10 10 12 3 11 16 12 1 9 20 22 30 27
Wind_Direction
348 345 343 341 340 337 337 336 335 334 333 329 321 313 304 299 292 287 276 274 286 286 279 282 259 234 212 235 236 257 238 247 244 250 266 275 285 301 302 294 294 299 74 40 186
348 345 342 341 340 336 333 331 332 332 338 335 332 324 315 307 306 291 189 265 282 292 288 270 265 271 237 240 225 208 231 236 248 257 270 287 298 297 321 327 314 308 263 140 126
351 346 342 340 339 336 332 331 328 326 328 330 327 322 320 317 346 296 197 304 310 281 274 211 226 284 265 238 238 237 236 254 259 259 269 279 290 308 315 303 285 296 332 199 196
354 349 342 339 337 337 335 334 334 331 326 325 323 327 332 333 43 125 342 35 41 36 46 86 256 247 231 245 249 247 249 239 249 261 274 276 289 290 294 288 286 275 296 303 313
352 350 344 336 333 332 332 333 335 334 327 318 314 328 349 320 261 355 22 24 6 342 328 296 265 264 235 235 236 254 262 261 255 256 259 272 272 275 279 281 286 286 279 291 301
349 347 343 337 330 325 326 329 335 334 334 320 308 318 324 280 54 347 358 352 318 342 319 309 321 318 298 303 288 296 286 274 264 253 252 251 269 277 268 269 272 277 283 284 289
351 345 341 336 329 320 317 321 331 332 333 325 308 314 290 243 333 315 322 311 312 296 285 308 317 340 327 324 308 324 307 297 277 275 271 282 271 248 262 269 261 263 269 273 275
351 348 340 334 328 321 312 313 323 328 324 316 311 309 268 203 296 348 324 319 304 310 301 295 260 284 286 278 290 299 291 290 267 267 274 254 268 264 269 258 261 260 250 267 260
346 347 342 332 326 324 316 313 312 311 302 321 288 315 287 220 260 332 327 316 327 313 297 275 247 234 264 263 298 259 270 278 282 267 273 237 253 260 263 262 261 256 257 250 261
342 342 341 335 328 326 331 329 331 313 272 311 229 288 279 262 338 341 308 313 301 295 295 262 235 206 254 204 233 244 252 260 264 277 283 277 271 278 260 248 251 257 245 244 241
342 339 341 339 334 342 18 14 3 18 328 249 273 242 297 325 340 295 323 326 308 318 276 327 334 272 259 265 266 286 294 290 300 333 327 299 292 295 301 301 282 246 248 254 247
346 340 342 345 357 35 358 16 12 317 304 284 265 266 278 279 279 302 324 333 329 308 316 335 293 312 325 325 322 316 286 281 299 310 293 304 296 295 294 290 294 289 261 239 244
347 341 343 8 42 45 27 4 349 336 302 301 208 231 231 251 264 279 317 311 330 332 325 323 302 314 313 309 312 305 303 301 286 287 276 291 283 292 292 283 286 289 280 268 239
345 343 342 343 347 341 336 334 331 318 305 199 167 153 231 243 247 228 218 112 284 295 288 272 271 286 312 328 316 319 334 318 305 299 278 253 283 269 289 291 290 287 292 282 276
342 340 350 27 5 33 348 329 333 64 24 191 125 187 214 210 260 313 183 186 238 255 267 262 277 276 287 309 353 308 333 310 312 311 315 288 281 286 289 285 290 287 285 292 277
343 334 300 305 342 355 326 324 313 337 278 144 160 243 255 291 299 221 256 246 250 245 243 248 265 56 48 359 325 311 350 323 308 304 271 282 264 276 269 274 282 283 289 285 287
344 331 272 244 10 349 323 325 0 222 194 35 3 3 326 285 278 265 131 282 269 300 317 335 346 347 57 17 314 25 7 331 335 311 266 280 283 283 281 266 272 289 288 285 282
352 15 353 170 24 331 341 335 257 330 22 7 358 316 282 320 222 354 254 284 46 41 7 358 340 18 5 209 235 278 139 250 251 283 285 290 268 260 271 284 277 293 295 288 284
2 151 75 71 10 321 357 345 270 347 16 354 339 315 341 360 353 339 339 340 56 66 67 328 256 323 303 303 307 297 230 243 263 288 295 275 262 278 268 314 11 348 344 337 323
7 47 48 105 318 31 27 280 297 36 8 351 306 348 348 332 335 352 351 19 31 22 119 224 293 289 314 312 291 328 338 326 307 279 249 268 292 313 15 355 353 354 345 327 333
29 322 186 329 311 290 156 260 303 340 337 351 318 301 319 319 345 337 327 318 24 360 348 352 308 299 308 272 29 338 295 348 309 246 249 308 275 49 40 13 345 347 338 324 322
34 344 282 357 258 248 283 332 320 307 354 306 308 348 315 332 306 293 314 320 360 14 12 42 287 286 291 287 197 209 158 153 216 305 224 257 275 143 85 38 341 346 325 321 331
354 282 233 74 337 316 294 339 312 334 45 299 281 297 296 286 291 306 291 286 23 336 84 252 293 317 311 314 19 303 238 232 270 261 245 267 270 190 144 44 344 343 318 339 312
352 335 5 314 2 21 348 312 316 308 286 291 267 290 317 297 288 300 329 318 300 267 317 324 227 215 247 265 281 282 284 289 229 224 277 274 290 283 70 62 2 356 343 330 324
4 359 15 315 342 317 292 284 293 321 8 8 342 329 312 307 311 297 301 298 293 326 149 92 266 258 272 277 282 282 287 293 296 278 280 292 273 319 227 145 121 13 346 296 289
16 357 338 297 305 291 280 319 342 333 346 330 294 295 333 322 305 303 324 319 272 292 228 179 258 305 287 286 285 271 271 277 296 329 334 2 313 355 326 138 171 263 278 278 278
15 350 326 287 292 309 330 336 312 305 311 294 310 313 306 291 292 301 302 288 264 271 271 261 217 299 272 304 308 302 22 351 336 325 326 350 321 345 6 359 266 267 277 293 332
Height
1515 1512 1510 1507 1505 1502 1500 1499 1497 1496 1494 1491 1489 1487 1484 1482 1481 1481 1479 1482 1481 1482 1483 1484 1486 1488 1490 1490 1492 1494 1496 1495 1488 1484 1474 1467 1465 1459 1458 1455 1452 1454 1457 1458 1453
1514 1511 1509 1506 1504 1502 1500 1498 1496 1495 1493 1491 1489 1486 1483 1480 1478 1477 1479 1480 1480 1479 1480 1480 1482 1485 1485 1485 1488 1487 1487 1485 1479 1474 1470 1468 1467 1461 1459 1456 1452 1452 1457 1459 1462
1514 1511 1508 1505 1503 1501 1498 1497 1496 1494 1492 1490 1487 1484 1481 1479 1478 1476 1479 1479 1478 1477 1476 1477 1480 1482 1482 1484 1482 1480 1478 1478 1473 1475 1472 1468 1465 1461 1461 1457 1453 1454 1458 1459 1460
1513 1510 1508 1505 1502 1499 1497 1495 1493 1492 1490 1487 1484 1482 1479 1479 1480 1477 1477 1476 1477 1477 1477 1478 1480 1482 1481 1481 1478 1478 1474 1475 1473 1475 1469 1465 1463 1459 1457 1458 1453 1451 1454 1457 1463
1513 1510 1507 1504 1501 1499 1496 1494 1492 1490 1488 1486 1483 1481 1481 1479 1478 1477 1477 1477 1477 1477 1476 1476 1477 1476 1476 1473 1474 1471 1469 1468 1467 1466 1463 1461 1457 1460 1452 1454 1453 1450 1452 1453 1454
1513 1509 1506 1502 1499 1497 1495 1493 1490 1488 1486 1484 1482 1481 1481 1481 1477 1476 1476 1475 1475 1478 1478 1477 1477 1475 1471 1469 1470 1467 1464 1461 1460 1459 1457 1458 1455 1456 1447 1452 1451 1448 1449 1450 1453
1511 1507 1504 1500 1498 1495 1493 1491 1489 1487 1485 1483 1482 1481 1481 1478 1477 1477 1476 1476 1476 1476 1476 1475 1473 1474 1472 1471 1467 1464 1462 1455 1454 1453 1450 1455 1450 1446 1447 1449 1448 1445 1443 1444 1450
1509 1505 1501 1497 1495 1493 1491 1489 1487 1485 1484 1482 1482 1481 1477 1477 1476 1476 1476 1475 1474 1474 1475 1474 1473 1475 1474 1472 1467 1468 1463 1466 1451 1450 1449 1458 1452 1440 1443 1442 1441 1441 1440 1435 1441
1507 1503 1498 1495 1492 1490 1488 1486 1485 1484 1482 1482 1482 1482 1478 1475 1475 1475 1474 1474 1474 1473 1472 1471 1472 1472 1472 1473 1478 1469 1474 1465 1453 1450 1450 1451 1443 1433 1437 1437 1435 1434 1437 1435 1430
1505 1501 1496 1492 1490 1488 1486 1484 1482 1481 1481 1481 1481 1486 1475 1475 1473 1473 1472 1473 1472 1470 1469 1467 1467 1469 1469 1475 1487 1474 1467 1458 1454 1448 1447 1448 1437 1429 1430 1430 1428 1429 1429 1428 1428
1503 1498 1494 1490 1488 1486 1485 1483 1485 1483 1481 1480 1477 1475 1473 1473 1473 1473 1472 1472 1470 1468 1469 1464 1470 1474 1465 1459 1456 1455 1455 1455 1448 1446 1449 1449 1440 1429 1430 1428 1426 1420 1420 1422 1422
1502 1497 1492 1489 1487 1486 1485 1484 1486 1487 1477 1473 1472 1471 1472 1472 1473 1470 1471 1472 1470 1471 1465 1467 1469 1458 1455 1453 1454 1454 1454 1452 1446 1445 1446 1445 1437 1427 1426 1425 1424 1421 1415 1412 1414
1500 1495 1491 1489 1488 1487 1487 1487 1485 1483 1481 1467 1466 1467 1470 1470 1469 1469 1469 1469 1468 1469 1467 1471 1465 1457 1455 1456 1456 1455 1456 1452 1450 1443 1440 1441 1439 1427 1417 1417 1416 1413 1411 1408 1404
1498 1493 1490 1488 1489 1487 1487 1487 1485 1482 1484 1467 1466 1467 1467 1467 1465 1463 1465 1468 1468 1469 1466 1465 1457 1455 1454 1456 1454 1460 1452 1448 1445 1448 1457 1440 1443 1433 1421 1412 1413 1408 1406 1402 1401
1496 1492 1490 1488 1487 1487 1488 1485 1483 1483 1490 1462 1463 1464 1464 1465 1462 1458 1462 1463 1464 1463 1464 1464 1456 1454 1455 1454 1454 1457 1452 1450 1447 1449 1448 1444 1448 1426 1423 1414 1409 1404 1402 1398 1394
1495 1491 1489 1489 1487 1487 1486 1483 1484 1490 1486 1461 1459 1460 1461 1458 1457 1457 1457 1457 1455 1455 1453 1451 1448 1451 1454 1453 1455 1452 1455 1451 1448 1452 1457 1443 1446 1427 1424 1415 1406 1401 1397 1393 1389
1492 1489 1488 1488 1488 1487 1485 1482 1489 1490 1456 1463 1462 1459 1461 1458 1454 1452 1454 1458 1460 1459 1457 1451 1450 1449 1452 1457 1454 1457 1464 1482 1476 1466 1456 1434 1436 1426 1408 1405 1401 1397 1393 1388 1385
1489 1489 1489 1489 1488 1487 1485 1485 1488 1464 1466 1463 1464 1462 1460 1448 1450 1450 1452 1456 1451 1456 1463 1468 1468 1458 1456 1456 1458 1455 1465 1479 1469 1461 1448 1432 1436 1414 1402 1398 1394 1394 1390 1385 1382
1488 1488 1489 1489 1489 1488 1488 1493 1487 1470 1468 1470 1468 1464 1457 1455 1458 1455 1455 1454 1456 1459 1472 1473 1465 1457 1452 1448 1451 1451 1459 1449 1456 1441 1449 1432 1416 1403 1392 1397 1397 1396 1391 1386 1378
1489 1488 1489 1490 1489 1488 1490 1489 1478 1474 1473 1474 1477 1468 1474 1468 1466 1464 1461 1455 1459 1460 1461 1465 1464 1452 1448 1447 1443 1446 1445 1457 1455 1455 1450 1425 1418 1413 1409 1405 1399 1396 1394 1386 1373
1489 1490 1490 1490 1489 1490 1496 1485 1477 1476 1475 1477 1476 1475 1473 1472 1470 1470 1466 1462 1460 1461 1461 1462 1465 1457 1453 1448 1449 1451 1447 1456 1454 1457 1449 1441 1431 1412 1414 1410 1402 1394 1391 1388 1375
1489 1490 1490 1489 1491 1487 1486 1482 1477 1474 1473 1474 1470 1471 1473 1471 1472 1470 1467 1464 1462 1463 1465 1466 1468 1463 1452 1438 1437 1440 1447 1451 1460 1453 1446 1448 1437 1414 1407 1403 1403 1391 1391 1382 1364
1493 1490 1489 1489 1492 1490 1483 1480 1477 1472 1472 1474 1474 1473 1470 1471 1475 1463 1463 1461 1460 1462 1464 1465 1469 1470 1450 1436 1438 1437 1434 1436 1441 1443 1439 1439 1424 1400 1400 1397 1396 1391 1391 1380 1367
1499 1495 1491 1490 1488 1488 1487 1483 1477 1472 1468 1467 1469 1468 1468 1467 1463 1462 1461 1458 1457 1457 1458 1460 1464 1466 1465 1449 1442 1438 1431 1425 1431 1440 1428 1419 1414 1401 1399 1396 1391 1395 1388 1382 1375
1506 1502 1502 1496 1491 1492 1488 1482 1476 1471 1470 1470 1471 1470 1470 1470 1466 1465 1459 1455 1452 1452 1454 1459 1463 1454 1448 1439 1432 1424 1421 1417 1416 1415 1419 1418 1404 1407 1396 1392 1393 1394 1387 1386 1379
1511 1510 1506 1501 1495 1491 1485 1479 1476 1472 1473 1471 1473 1469 1468 1470 1466 1461 1458 1458 1455 1450 1450 1454 1458 1451 1442 1431 1420 1415 1415 1411 1409 1408 1405 1410 1401 1393 1384 1386 1386 1391 1389 1378 1376
1513 1513 1511 1503 1496 1491 1486 1485 1480 1477 1471 1470 1468 1468 1468 1464 1459 1455 1453 1449 1447 1448 1447 1448 1450 1452 1442 1428 1420 1422 1420 1416 1416 1414 1412 1414 1409 1400 1392 1387 1390 1386 1383 1378 1366